{"data":{"norad_id":62812,"intl_designator":"2025-018G","name":"STARLINK-32837","alt_names":[],"object_type":"PAYLOAD","status":"ACTIVE","operator":null,"country":"US","launch_date":"2025-01-24","launch_site_code":"AFWTR","launch_vehicle":null,"mission":null,"orbit_class":"UNKNOWN","rcs_meters":null,"size_class":null,"mass_kg":null,"dimensions":null,"purposes":["comms"],"wikipedia_slug":null,"has_3d_model":false,"image_url":null,"decayed_at":null,"tle_current":{"epoch":"2026-09-21T20:54:35.266464Z","epoch_age_seconds":49783,"freshness":"FRESH","line1":"1 62812U 25018G   26264.87124151  .00014183  00000+0  43003-3 0  9993","line2":"2 62812  53.1575 115.6015 0001180  77.1349 282.9786 15.34404703 93259","mean_motion":15.34404703,"eccentricity":0.000118,"inclination_deg":53.1575,"raan_deg":115.6015,"arg_perigee_deg":77.1349,"mean_anomaly_deg":282.9786,"bstar":0.00043003,"rev_number":9325,"period_min":93.847470434923,"perigee_km":461.88204443679,"apogee_km":463.4964794346,"semimajor_km":6840.8262619357,"source":"CELESTRAK","updated_at":"2026-09-22T09:00:49.667560Z"}}}